Location: Lhota
(50.0887°N, 14.0116°E)
Time: 00:44:06
(UTC+00:00)

Cosmos 1356 Rocket - Pass Details

Date: 19 May 2025
Orbit: 517 x 565 km, 81.2° (Epoch: 23 June)

Event Time Altitude Azimuth Distance (km) Brightness Sun altitude
Exits shadow 20:28:27 15° 175° (S) 1,578 5.1 -12.3°
Maximum altitude 20:31:47 59° 98° (E) 659 3.5 -12.6°
Drops below altitude 10° 20:35:49 10° 19° (NNE) 1,860 6.5 -13.0°
Sets 20:38:01 0° 16° (NNE) 2,755 7.5 -13.2°
